Date String (YYYY-MM-DD hh:mm:ss) UTC,Instrument flags,Ambient pressure (hPa),Sample flow (lpm),Bypass flow (lpm),Sample temperature (°C),Ambient temperature (°C),ASC tube jacket temperature (°C),LED temperature (°C),Box temperature (°C),Sample RH (%),Span deviation,Mass concentration (μg/m³),Mass concentration (μg/m³),Mass concentration (μg/m³)
DateTimeUTC,F1_M11,P_M11,Q1_M11,Q2_M11,T1_M11,T2_M11,T3_M11,T4_M11,T5_M11,U1_M11,ZSPAN_M11,X0_M11,X2_M11,X1_M11
2022-05-13 04:00:00,,0824.1,5.01,0.00,29.2,28.3,00.0,38.3,30.9,06.2,0000.0,0007.56,0002.62,0001.08
2022-05-13 04:01:00,,0824.1,4.99,0.00,29.1,28.3,00.0,38.3,30.8,06.3,0000.0,0007.49,0002.58,0001.07
2022-05-13 04:02:00,,0824.0,4.99,0.00,29.1,28.3,00.0,38.3,30.8,06.2,0000.0,0007.76,0002.62,0001.09
2022-05-13 04:03:00,,0824.1,5.00,0.00,29.1,28.3,00.0,38.3,30.8,06.2,0000.0,0007.31,0002.59,0001.10
2022-05-13 04:04:00,,0824.1,4.99,0.00,29.1,28.3,00.0,38.3,30.8,06.2,0000.0,0006.79,0002.59,0001.12
2022-05-13 04:05:00,,0824.1,5.00,0.00,29.1,28.3,00.0,38.2,30.8,06.2,0000.0,0005.86,0002.52,0001.12
2022-05-13 04:06:00,,0824.1,5.01,0.00,29.1,28.3,00.0,38.2,30.8,06.2,0000.0,0005.57,0002.44,0001.13
2022-05-13 04:07:00,,0824.1,5.00,0.00,29.1,28.3,00.0,38.2,30.8,06.2,0000.0,0005.67,0002.45,0001.13
2022-05-13 04:08:00,,0824.1,5.00,0.00,29.1,28.3,00.0,38.2,30.8,06.3,0000.0,0005.75,0002.46,0001.14
2022-05-13 04:09:00,,0824.1,5.00,0.00,29.1,28.4,00.0,38.2,30.9,06.2,0000.0,0005.89,0002.48,0001.15
2022-05-13 04:10:00,,0824.0,5.01,0.00,29.1,28.4,00.0,38.2,30.9,06.3,0000.0,0006.56,0002.42,0001.15
2022-05-13 04:11:00,,0824.0,4.99,0.00,29.1,28.5,00.0,38.2,30.9,06.3,0000.0,0006.71,0002.43,0001.16
2022-05-13 04:12:00,,0824.1,5.01,0.00,29.1,28.5,00.0,38.2,30.9,06.3,0000.0,0006.76,0002.49,0001.18
2022-05-13 04:13:00,,0824.1,4.99,0.00,29.1,28.5,00.0,38.2,30.9,06.4,0000.0,0006.40,0002.44,0001.19
2022-05-13 04:14:00,,0824.1,5.01,0.00,29.1,28.5,00.0,38.2,30.9,06.4,0000.0,0006.33,0002.46,0001.18
2022-05-13 04:15:00,,0824.0,5.00,0.00,29.1,28.5,00.0,38.2,30.9,06.5,0000.0,0008.09,0002.44,0001.17
2022-05-13 04:16:00,,0824.0,5.00,0.00,29.1,28.4,00.0,38.2,30.9,06.6,0000.0,0008.72,0002.46,0001.15
2022-05-13 04:17:00,,0823.8,5.01,0.00,29.1,28.4,00.0,38.2,30.9,06.5,0000.0,0009.01,0002.51,0001.15
2022-05-13 04:18:00,,0824.0,4.99,0.00,29.1,28.4,00.0,38.2,30.9,06.4,0000.0,0009.34,0002.49,0001.15
2022-05-13 04:19:00,,0824.1,5.00,0.00,29.1,28.4,00.0,38.2,30.8,06.5,0000.0,0009.86,0002.55,0001.14
2022-05-13 04:20:00,,0824.0,5.00,0.00,29.1,28.4,00.0,38.2,30.9,06.5,0000.0,0010.22,0002.55,0001.15
2022-05-13 04:21:00,,0824.1,4.99,0.00,29.1,28.3,00.0,38.1,30.8,06.5,0000.0,0009.86,0002.64,0001.15
2022-05-13 04:22:00,,0824.1,5.00,0.00,29.1,28.3,00.0,38.1,30.8,06.5,0000.0,0009.74,0002.62,0001.15
2022-05-13 04:23:00,,0823.9,5.00,0.00,29.0,28.3,00.0,38.1,30.8,06.6,0000.0,0009.90,0002.63,0001.14
2022-05-13 04:24:00,,0823.7,4.99,0.00,29.0,28.2,00.0,38.1,30.7,06.6,0000.0,0010.24,0002.71,0001.12
2022-05-13 04:25:00,,0823.8,5.00,0.00,29.0,28.1,00.0,38.1,30.7,06.6,0000.0,0010.42,0002.77,0001.12
2022-05-13 04:26:00,,0823.9,5.02,0.00,28.9,28.0,00.0,38.1,30.6,06.7,0000.0,0009.33,0002.79,0001.14
2022-05-13 04:27:00,,0823.9,4.98,0.00,28.9,28.0,00.0,38.1,30.6,06.7,0000.0,0008.57,0002.80,0001.14
2022-05-13 04:28:00,,0824.0,4.99,0.00,28.9,28.1,00.0,38.0,30.6,06.7,0000.0,0008.44,0002.84,0001.14
2022-05-13 04:29:00,,0824.0,5.00,0.00,28.9,28.1,00.0,38.0,30.6,06.7,0000.0,0008.24,0002.87,0001.14
2022-05-13 04:30:00,,0824.0,5.00,0.00,28.9,28.0,00.0,38.0,30.5,06.7,0000.0,0007.77,0002.85,0001.14
2022-05-13 04:31:00,,0824.1,5.01,0.00,28.8,27.9,00.0,38.0,30.5,06.7,0000.0,0007.35,0002.79,0001.13
2022-05-13 04:32:00,,0824.1,5.00,0.00,28.8,28.0,00.0,38.0,30.5,06.7,0000.0,0007.60,0002.78,0001.14
2022-05-13 04:33:00,,0824.1,5.01,0.00,28.8,27.9,00.0,37.9,30.4,06.7,0000.0,0007.94,0002.81,0001.15
2022-05-13 04:34:00,,0824.0,4.99,0.00,28.8,27.9,00.0,37.9,30.5,06.6,0000.0,0008.16,0002.88,0001.15
2022-05-13 04:35:00,,0824.0,5.00,0.00,28.8,27.9,00.0,37.9,30.5,06.7,0000.0,0007.90,0002.90,0001.15
2022-05-13 04:36:00,,0824.0,5.00,0.00,28.8,28.0,00.0,37.9,30.5,06.7,0000.0,0007.76,0002.87,0001.14
2022-05-13 04:37:00,,0823.9,5.01,0.00,28.8,28.1,00.0,37.9,30.5,06.7,0000.0,0008.05,0002.85,0001.12
2022-05-13 04:38:00,,0824.0,4.99,0.00,28.8,28.1,00.0,37.9,30.6,06.7,0000.0,0009.01,0002.86,0001.12
2022-05-13 04:39:00,,0823.9,5.00,0.00,28.8,28.1,00.0,37.9,30.6,06.7,0000.0,0009.32,0002.84,0001.12
2022-05-13 04:40:00,,0824.0,4.99,0.00,28.8,28.1,00.0,37.9,30.6,06.7,0000.0,0009.97,0002.82,0001.11
2022-05-13 04:41:00,,0823.9,5.01,0.00,28.8,28.2,00.0,37.9,30.6,06.7,0000.0,0009.89,0002.82,0001.12
2022-05-13 04:42:00,,0824.0,4.99,0.00,28.8,28.1,00.0,37.9,30.6,06.7,0000.0,0009.91,0002.86,0001.15
2022-05-13 04:43:00,,0824.0,5.01,0.00,28.8,28.1,00.0,37.9,30.6,06.7,0000.0,0010.11,0002.85,0001.14
2022-05-13 04:44:00,,0823.9,4.99,0.00,28.8,28.0,00.0,37.8,30.5,06.8,0000.0,0010.19,0002.77,0001.12
2022-05-13 04:45:00,,0824.0,5.00,0.00,28.7,28.0,00.0,37.8,30.5,06.8,0000.0,0010.06,0002.69,0001.12
2022-05-13 04:46:00,,0824.0,5.01,0.00,28.7,28.0,00.0,37.8,30.4,06.8,0000.0,0010.70,0002.68,0001.12
2022-05-13 04:47:00,,0824.0,4.99,0.00,28.7,27.9,00.0,37.8,30.4,06.9,0000.0,0010.59,0002.64,0001.14
2022-05-13 04:48:00,,0823.9,5.01,0.00,28.7,27.9,00.0,37.8,30.4,06.9,0000.0,0010.66,0002.71,0001.17
2022-05-13 04:49:00,,0823.9,4.99,0.00,28.7,27.9,00.0,37.8,30.4,06.9,0000.0,0010.12,0002.76,0001.18
2022-05-13 04:50:00,,0824.0,5.00,0.00,28.6,27.9,00.0,37.8,30.3,07.0,0000.0,0009.67,0002.71,0001.19
2022-05-13 04:51:00,,0824.0,5.01,0.00,28.6,27.8,00.0,37.7,30.4,07.0,0000.0,0009.08,0002.72,0001.19
2022-05-13 04:52:00,,0823.9,4.99,0.00,28.7,27.9,00.0,37.7,30.4,07.0,0000.0,0008.94,0002.66,0001.18
2022-05-13 04:53:00,,0824.0,5.01,0.00,28.6,27.9,00.0,37.7,30.4,06.8,0000.0,0008.95,0002.70,0001.17
2022-05-13 04:54:00,,0823.9,4.99,0.00,28.6,27.9,00.0,37.7,30.3,06.9,0000.0,0008.44,0002.66,0001.17
2022-05-13 04:55:00,,0824.1,5.01,0.00,28.6,27.9,00.0,37.7,30.3,06.9,0000.0,0008.32,0002.72,0001.19
2022-05-13 04:56:00,,0824.1,5.01,0.00,28.6,27.8,00.0,37.7,30.3,06.8,0000.0,0009.14,0002.75,0001.19
2022-05-13 04:57:00,,0824.0,4.99,0.00,28.6,27.8,00.0,37.7,30.3,06.8,0000.0,0009.69,0002.78,0001.20
2022-05-13 04:58:00,,0824.0,5.01,0.00,28.5,27.7,00.0,37.7,30.2,06.9,0000.0,0009.78,0002.80,0001.20
2022-05-13 04:59:00,,0824.1,4.99,0.00,28.5,27.7,00.0,37.6,30.2,06.9,0000.0,0010.14,0002.72,0001.18
